This is the latest recevied weather packets stored in our database for station/object M0TUM-1. If no packets are shown the sender has not sent any weather packets the latest 10 day(s).
| Time | Temp. | Humidity | Pressure | Rain* | Wind** | Luminosity | Snow |
|---|---|---|---|---|---|---|---|
| 1777973749 | 15.56° C | 48% | 1013.2 hPa | 0 mm | - | 637 W/m² | - |
| 1777973447 | 15.56° C | 49% | 1013.1 hPa | 0 mm | - | 649 W/m² | - |
| 1777973144 | 15.56° C | 49% | 1013.3 hPa | 0 mm | - | 644 W/m² | - |
| 1777972842 | 14.44° C | 52% | 1013.1 hPa | 0 mm | - | 675 W/m² | - |
| 1777972539 | 15° C | 52% | 1013.2 hPa | 0 mm | - | 721 W/m² | - |
| 1777972237 | 14.44° C | 53% | 1013.3 hPa | 0 mm | - | 481 W/m² | - |
| 1777971935 | 13.89° C | 58% | 1013.4 hPa | 0 mm | - | 691 W/m² | - |
| 1777971632 | 12.78° C | 59% | 1013.1 hPa | 0 mm | - | 446 W/m² | - |
| 1777971330 | 12.78° C | 62% | 1013.1 hPa | 0 mm | - | 560 W/m² | - |
| 1777971028 | 12.22° C | 64% | 1013 hPa | 0 mm | - | 484 W/m² | - |
| 1777970726 | 12.78° C | 66% | 1013.4 hPa | 0 mm | - | 437 W/m² | - |
| 1777970424 | 12.22° C | 68% | 1013.5 hPa | 0 mm | - | 321 W/m² | - |
| 1777970121 | 11.67° C | 71% | 1013.4 hPa | 0 mm | - | 308 W/m² | - |
| 1777969817 | 11.67° C | 71% | 1013.4 hPa | 0 mm | - | 271 W/m² | - |
| 1777969513 | 12.22° C | 71% | 1013.3 hPa | 0 mm | - | 245 W/m² | - |
| 1777969210 | 11.67° C | 73% | 1013.4 hPa | 0 mm | - | 236 W/m² | - |
| 1777968906 | 11.67° C | 75% | 1013.4 hPa | 0 mm | - | 219 W/m² | - |
| 1777968603 | 11.11° C | 75% | 1013.7 hPa | 0 mm | - | 209 W/m² | - |
| 1777968299 | 11.11° C | 76% | 1013.7 hPa | 0 mm | - | 188 W/m² | - |
| 1777967995 | 10.56° C | 78% | 1013.6 hPa | 0 mm | - | 186 W/m² | - |
| 1777967692 | 10.56° C | 79% | 1013.5 hPa | 0 mm | - | 182 W/m² | - |
| 1777967389 | 10.56° C | 80% | 1013.5 hPa | 0 mm | - | 177 W/m² | - |
| 1777966784 | 10° C | 83% | 1013.4 hPa | 0 mm | - | 161 W/m² | - |
| 1777966481 | 9.44° C | 84% | 1013.6 hPa | 0 mm | - | 152 W/m² | - |
| 1777966178 | 10° C | 85% | 1013.6 hPa | 0 mm | - | 149 W/m² | - |
* Rain latest hour (hover to see other rain measurements)
** Current wind speed in m/s (hover to see current wind gust speed)